Starlink 31940

operational
NORAD ID: 59873 Int'l Des: 2024-098 Owner: SPXS Country: US Constellation: starlink
LEOCIRCULAR

About Starlink 31940

Description loading...

Live Position

Loading 3D Globe...

Upcoming Passes

Altitude History

Altitude vs Time

uPlot chart will show altitude changes over time

Two-Line Element Set

1 59873U 24098R 26034.55432652 -.00000559 00000-0 -10786-4 0 9999
2 59873 42.9989 103.1587 0000677 296.0957 63.9825 15.27579616 96713
Epoch: Feb 3, 2026 • Age: 23 hours

Current Status

Altitude 486.2 km
Velocity 7.62 km/s
Sub-Earth Point -15.65°S, 21.89°W
Launch Date May 24, 2024
Age 1.7 years
Type internet

Technical Details

Classification Payload
Mass 730.00 kg
Dry Mass 700.00 kg
Total Mass 730.00 kg
Length 0.30 m
Diameter 4.10 m
Span 29.00 m
Shape Box + pan
Manufacturer SPXS
Bus Type Starlink V2M
Phase Status In Orbit
Owner/State SPXS/US

Large Constellations

Loading constellations...